Location: Unspecified
(0.0000°N, 0.0000°E)
Time: 16:03:04
(UTC+00:00)

HuskySat-1 - Pass Details

Date: 29 October 2021
Orbit: 443 x 456 km, 51.6° (Epoch: 29 November)

Event Time Altitude Azimuth Distance (km) Brightness Sun altitude
Exits shadow 04:36:59 15° 222° (SW) 1,305 ? -16.2°
Maximum altitude 04:39:51 72° 305° (NW) 468 ? -15.5°
Drops below altitude 10° 04:43:20 10° 30° (NNE) 1,552 ? -14.7°
Sets 04:45:27 0° 32° (NNE) 2,418 ? -14.2°
